This is the latest recevied weather packets stored in our database for station/object IU5JAE-13. If no packets are shown the sender has not sent any weather packets the latest 10 day(s).
| Time | Temp. | Humidity | Pressure | Rain* | Wind** | Luminosity | Snow |
|---|---|---|---|---|---|---|---|
| 1777464333 | 20.56° C | 33% | 1015.5 hPa | 0 mm | - | 653 W/m² | - |
| 1777463730 | 20.56° C | 35% | 1015.6 hPa | 0 mm | - | 664 W/m² | - |
| 1777463128 | 20.56° C | 40% | 1015.6 hPa | 0 mm | - | 675 W/m² | - |
| 1777462525 | 20° C | 43% | 1015.7 hPa | 0 mm | - | 612 W/m² | - |
| 1777461923 | 21.11° C | 40% | 1015.7 hPa | 0 mm | - | 470 W/m² | - |
| 1777461321 | 20.56° C | 42% | 1015.7 hPa | 0 mm | - | 708 W/m² | - |
| 1777460718 | 20.56° C | 43% | 1015.8 hPa | 0 mm | - | 729 W/m² | - |
| 1777460116 | 20.56° C | 42% | 1015.8 hPa | 0 mm | - | 696 W/m² | - |
| 1777459533 | 21.11° C | 42% | 1015.7 hPa | 0 mm | - | 699 W/m² | - |
| 1777458931 | 21.11° C | 42% | 1015.7 hPa | 0 mm | - | 663 W/m² | - |
| 1777458329 | 21.11° C | 40% | 1015.8 hPa | 0 mm | - | 671 W/m² | - |
| 1777457726 | 21.11° C | 40% | 1015.7 hPa | 0 mm | - | 667 W/m² | - |
| 1777457124 | 20.56° C | 41% | 1015.8 hPa | 0 mm | - | 660 W/m² | - |
| 1777456522 | 20° C | 40% | 1015.9 hPa | 0 mm | - | 651 W/m² | - |
| 1777455919 | 20° C | 40% | 1015.9 hPa | 0 mm | - | 617 W/m² | - |
| 1777455316 | 19.44° C | 42% | 1015.9 hPa | 0 mm | - | 626 W/m² | - |
| 1777454734 | 18.89° C | 43% | 1016 hPa | 0 mm | - | 608 W/m² | - |
| 1777454132 | 19.44° C | 41% | 1015.9 hPa | 0 mm | - | 591 W/m² | - |
| 1777453529 | 18.89° C | 39% | 1015.9 hPa | 0 mm | - | 570 W/m² | - |
| 1777452927 | 18.89° C | 39% | 1015.9 hPa | 0 mm | - | 540 W/m² | - |
| 1777452324 | 19.44° C | 40% | 1015.9 hPa | 0 mm | - | 525 W/m² | - |
| 1777451722 | 19.44° C | 47% | 1016 hPa | 0 mm | - | 508 W/m² | - |
| 1777451120 | 19.44° C | 53% | 1015.9 hPa | 0 mm | - | 493 W/m² | - |
| 1777450517 | 18.89° C | 53% | 1015.9 hPa | 0 mm | - | 476 W/m² | - |
| 1777449935 | 17.78° C | 59% | 1015.8 hPa | 0 mm | - | 452 W/m² | - |
* Rain latest hour (hover to see other rain measurements)
** Current wind speed in m/s (hover to see current wind gust speed)